Time,TemperatureF,DewpointF,PressureIn,WindDirection,WindDirectionDegrees,WindSpeedMPH,WindSpeedGustMPH,Humidity,HourlyPrecipIn,Conditions,Clouds,dailyrainin,SolarRadiationWatts/m^2,SoftwareType,DateUTC
2013-02-13 00:10:00,69.4,67.0,29.90,SW,234,5.0,12.0,91,0.00,,,0.00,0,weatherlink.com 1.10,2013-02-13 05:10:00,
2013-02-13 00:25:00,69.8,67.0,29.89,SW,215,7.0,14.0,91,0.00,,,0.00,0,weatherlink.com 1.10,2013-02-13 05:25:00,
2013-02-13 00:40:00,69.7,67.0,29.88,South,180,3.0,9.0,91,0.00,,,0.00,0,weatherlink.com 1.10,2013-02-13 05:40:00,
2013-02-13 00:55:00,69.7,67.0,29.88,SSW,207,5.0,10.0,91,0.00,,,0.00,0,weatherlink.com 1.10,2013-02-13 05:55:00,
2013-02-13 01:10:00,69.9,68.0,29.89,South,190,4.0,12.0,92,0.00,,,0.00,0,weatherlink.com 1.10,2013-02-13 06:10:00,
2013-02-13 01:25:00,70.1,67.0,29.89,SW,221,5.0,8.0,91,0.00,,,0.00,0,weatherlink.com 1.10,2013-02-13 06:25:00,
2013-02-13 01:40:00,70.4,68.0,29.88,SW,227,4.0,9.0,91,0.00,,,0.00,0,weatherlink.com 1.10,2013-02-13 06:40:00,
2013-02-13 01:55:00,70.6,68.0,29.87,SSW,192,2.0,8.0,91,0.00,,,0.00,0,weatherlink.com 1.10,2013-02-13 06:55:00,
2013-02-13 02:10:00,70.9,68.0,29.87,South,186,0.0,12.0,91,0.00,,,0.00,0,weatherlink.com 1.10,2013-02-13 07:10:00,
2013-02-13 02:25:00,71.0,68.0,29.86,South,186,3.0,8.0,91,0.00,,,0.00,0,weatherlink.com 1.10,2013-02-13 07:25:00,
2013-02-13 02:40:00,71.0,68.0,29.86,WSW,240,4.0,9.0,91,0.00,,,0.00,0,weatherlink.com 1.10,2013-02-13 07:40:00,
2013-02-13 02:55:00,71.0,68.0,29.86,SSW,200,5.0,6.0,91,0.00,,,0.00,0,weatherlink.com 1.10,2013-02-13 07:55:00,
2013-02-13 03:11:00,71.5,69.0,29.86,SW,221,2.0,10.0,91,0.00,,,0.00,0,weatherlink.com 1.10,2013-02-13 08:11:00,
2013-02-13 03:26:00,71.9,69.0,29.85,SSW,194,6.0,10.0,90,0.00,,,0.00,0,weatherlink.com 1.10,2013-02-13 08:26:00,
2013-02-13 03:41:00,71.9,69.0,29.85,SW,215,7.0,10.0,90,0.00,,,0.00,0,weatherlink.com 1.10,2013-02-13 08:41:00,
2013-02-13 03:56:00,71.9,69.0,29.85,SSW,192,2.0,12.0,91,0.00,,,0.00,0,weatherlink.com 1.10,2013-02-13 08:56:00,
2013-02-13 04:11:00,72.2,69.0,29.85,South,182,3.0,14.0,90,0.00,,,0.00,0,weatherlink.com 1.10,2013-02-13 09:11:00,
2013-02-13 04:26:00,72.3,69.0,29.85,SW,215,2.0,11.0,90,0.00,,,0.00,0,weatherlink.com 1.10,2013-02-13 09:26:00,
2013-02-13 04:41:00,72.5,70.0,29.85,SW,221,8.0,13.0,90,0.00,,,0.00,0,weatherlink.com 1.10,2013-02-13 09:41:00,
2013-02-13 04:56:00,72.6,70.0,29.85,SSW,199,4.0,13.0,90,0.00,,,0.00,0,weatherlink.com 1.10,2013-02-13 09:56:00,
2013-02-13 05:11:00,72.8,70.0,29.85,SSW,198,3.0,20.0,89,0.00,,,0.00,0,weatherlink.com 1.10,2013-02-13 10:11:00,
2013-02-13 05:27:00,72.8,70.0,29.85,SW,228,7.0,13.0,89,0.00,,,0.00,0,weatherlink.com 1.10,2013-02-13 10:27:00,
2013-02-13 05:41:00,73.0,70.0,29.85,SSW,205,5.0,18.0,89,0.00,,,0.00,0,weatherlink.com 1.10,2013-02-13 10:41:00,
2013-02-13 05:56:00,73.0,70.0,29.84,South,183,3.0,14.0,89,0.00,,,0.00,0,weatherlink.com 1.10,2013-02-13 10:56:00,
2013-02-13 06:11:00,73.1,70.0,29.84,SSW,206,5.0,13.0,89,0.00,,,0.00,0,weatherlink.com 1.10,2013-02-13 11:11:00,
2013-02-13 06:27:00,73.1,70.0,29.84,SSW,213,6.0,11.0,89,0.00,,,0.00,0,weatherlink.com 1.10,2013-02-13 11:27:00,
2013-02-13 06:42:00,73.3,70.0,29.85,South,184,5.0,19.0,89,0.00,,,0.00,0,weatherlink.com 1.10,2013-02-13 11:42:00,
2013-02-13 06:56:00,73.3,70.0,29.85,SSW,209,4.0,12.0,89,0.00,,,0.00,0,weatherlink.com 1.10,2013-02-13 11:56:00,
2013-02-13 07:12:00,73.3,70.0,29.85,SSE,155,7.0,13.0,89,0.00,,,0.00,0,weatherlink.com 1.10,2013-02-13 12:12:00,
2013-02-13 07:27:00,73.3,70.0,29.85,SW,235,7.0,14.0,89,0.00,,,0.00,5,weatherlink.com 1.10,2013-02-13 12:27:00,
2013-02-13 07:42:00,73.3,70.0,29.86,WSW,247,16.0,16.0,89,0.00,,,0.00,11,weatherlink.com 1.10,2013-02-13 12:42:00,
2013-02-13 07:57:00,73.4,70.0,29.87,WSW,247,12.0,18.0,89,0.00,,,0.00,28,weatherlink.com 1.10,2013-02-13 12:57:00,
2013-02-13 08:12:00,73.5,70.0,29.87,South,185,7.0,18.0,88,0.00,,,0.00,42,weatherlink.com 1.10,2013-02-13 13:12:00,
2013-02-13 08:27:00,73.5,70.0,29.87,SSW,192,5.0,17.0,88,0.00,,,0.00,40,weatherlink.com 1.10,2013-02-13 13:27:00,
2013-02-13 08:42:00,73.6,70.0,29.86,SW,217,6.0,17.0,87,0.00,,,0.00,86,weatherlink.com 1.10,2013-02-13 13:42:00,
2013-02-13 08:57:00,74.0,70.0,29.86,SW,219,7.0,15.0,86,0.00,,,0.00,116,weatherlink.com 1.10,2013-02-13 13:57:00,
2013-02-13 09:12:00,74.2,70.0,29.88,SSW,200,4.0,14.0,86,0.00,,,0.00,32,weatherlink.com 1.10,2013-02-13 14:12:00,
2013-02-13 09:27:00,74.2,70.0,29.88,SW,219,10.0,22.0,86,0.00,,,0.00,98,weatherlink.com 1.10,2013-02-13 14:27:00,
2013-02-13 09:42:00,74.4,70.0,29.87,SW,224,9.0,18.0,86,0.00,,,0.00,146,weatherlink.com 1.10,2013-02-13 14:42:00,
2013-02-13 09:57:00,74.5,70.0,29.87,WSW,244,8.0,20.0,85,0.00,,,0.00,146,weatherlink.com 1.10,2013-02-13 14:57:00,
2013-02-13 10:12:00,74.6,70.0,29.87,SW,224,4.0,17.0,85,0.00,,,0.00,86,weatherlink.com 1.10,2013-02-13 15:12:00,
2013-02-13 10:27:00,74.3,70.0,29.87,WSW,243,8.0,13.0,87,0.00,,,0.00,44,weatherlink.com 1.10,2013-02-13 15:27:00,
2013-02-13 10:45:00,71.9,70.0,29.89,SW,223,6.0,18.0,92,0.12,,,0.12,39,weatherlink.com 1.10,2013-02-13 15:45:00,
2013-02-13 10:59:00,70.9,69.0,29.88,WSW,238,4.0,19.0,93,0.22,,,0.22,69,weatherlink.com 1.10,2013-02-13 15:59:00,
2013-02-13 11:14:00,70.7,69.0,29.89,West,273,7.0,13.0,94,0.29,,,0.29,53,weatherlink.com 1.10,2013-02-13 16:14:00,
2013-02-13 11:28:00,70.8,69.0,29.87,SSW,213,2.0,14.0,94,0.32,,,0.32,46,weatherlink.com 1.10,2013-02-13 16:28:00,
2013-02-13 11:44:00,71.0,69.0,29.86,SW,232,6.0,14.0,94,0.20,,,0.32,223,weatherlink.com 1.10,2013-02-13 16:44:00,
2013-02-13 11:58:00,72.1,71.0,29.85,WSW,248,9.0,13.0,95,0.10,,,0.32,339,weatherlink.com 1.10,2013-02-13 16:58:00,
2013-02-13 12:14:00,72.8,71.0,29.86,SW,232,4.0,15.0,93,0.03,,,0.32,260,weatherlink.com 1.10,2013-02-13 17:14:00,
2013-02-13 12:28:00,73.2,71.0,29.86,SW,225,4.0,19.0,92,0.00,,,0.32,93,weatherlink.com 1.10,2013-02-13 17:28:00,
2013-02-13 12:45:00,74.0,71.0,29.86,SSW,196,5.0,16.0,91,0.00,,,0.32,729,weatherlink.com 1.10,2013-02-13 17:45:00,
2013-02-13 12:58:00,74.5,71.0,29.85,WSW,249,4.0,12.0,88,0.00,,,0.32,160,weatherlink.com 1.10,2013-02-13 17:58:00,
2013-02-13 13:14:00,74.4,71.0,29.84,SW,232,5.0,16.0,88,0.00,,,0.32,146,weatherlink.com 1.10,2013-02-13 18:14:00,
2013-02-13 13:44:00,75.3,71.0,29.82,WSW,257,5.0,16.0,85,0.00,,,0.32,111,weatherlink.com 1.10,2013-02-13 18:44:00,
2013-02-13 13:58:00,74.9,70.0,29.82,SW,228,7.0,12.0,85,0.00,,,0.32,308,weatherlink.com 1.10,2013-02-13 18:58:00,
2013-02-13 14:14:00,75.2,71.0,29.82,WSW,254,4.0,11.0,85,0.00,,,0.32,311,weatherlink.com 1.10,2013-02-13 19:14:00,
2013-02-13 14:29:00,75.7,70.0,29.82,WNW,292,9.0,16.0,83,0.00,,,0.32,336,weatherlink.com 1.10,2013-02-13 19:29:00,
2013-02-13 14:44:00,75.3,70.0,29.81,West,277,9.0,14.0,84,0.00,,,0.32,234,weatherlink.com 1.10,2013-02-13 19:44:00,
2013-02-13 14:59:00,74.9,70.0,29.82,West,267,6.0,14.0,84,0.00,,,0.32,104,weatherlink.com 1.10,2013-02-13 19:59:00,
2013-02-13 15:14:00,74.2,68.0,29.83,West,274,4.0,16.0,82,0.00,,,0.32,163,weatherlink.com 1.10,2013-02-13 20:14:00,
2013-02-13 15:29:00,73.1,68.0,29.82,West,279,5.0,17.0,84,0.00,,,0.32,167,weatherlink.com 1.10,2013-02-13 20:29:00,
2013-02-13 15:44:00,71.5,65.0,29.82,West,268,3.0,15.0,80,0.00,,,0.32,67,weatherlink.com 1.10,2013-02-13 20:44:00,
2013-02-13 15:59:00,71.3,65.0,29.82,West,272,5.0,8.0,79,0.00,,,0.32,95,weatherlink.com 1.10,2013-02-13 20:59:00,
2013-02-13 16:14:00,70.8,64.0,29.83,SW,226,3.0,8.0,78,0.00,,,0.32,56,weatherlink.com 1.10,2013-02-13 21:14:00,
2013-02-13 16:29:00,70.3,64.0,29.85,SW,224,3.0,8.0,79,0.00,,,0.32,18,weatherlink.com 1.10,2013-02-13 21:29:00,
2013-02-13 16:44:00,69.7,65.0,29.86,SW,215,2.0,6.0,84,0.00,,,0.32,9,weatherlink.com 1.10,2013-02-13 21:44:00,
2013-02-13 16:59:00,68.7,65.0,29.86,SW,225,0.0,6.0,88,0.01,,,0.33,44,weatherlink.com 1.10,2013-02-13 21:59:00,
2013-02-13 17:14:00,67.7,65.0,29.86,SSW,207,1.0,3.0,91,0.02,,,0.34,18,weatherlink.com 1.10,2013-02-13 22:14:00,
2013-02-13 17:44:00,65.9,64.0,29.86,WSW,238,2.0,5.0,93,0.02,,,0.34,5,weatherlink.com 1.10,2013-02-13 22:44:00,
2013-02-13 18:00:00,66.5,65.0,29.86,SW,226,1.0,7.0,94,0.01,,,0.34,5,weatherlink.com 1.10,2013-02-13 23:00:00,
2013-02-13 18:15:00,66.5,65.0,29.86,SW,221,0.0,2.0,94,0.00,,,0.34,0,weatherlink.com 1.10,2013-02-13 23:15:00,
2013-02-13 18:29:00,66.2,65.0,29.86,SSW,207,1.0,3.0,94,0.00,,,0.34,0,weatherlink.com 1.10,2013-02-13 23:29:00,
2013-02-13 18:46:00,66.1,65.0,29.87,SW,219,0.0,3.0,95,0.00,,,0.34,0,weatherlink.com 1.10,2013-02-13 23:46:00,
2013-02-13 19:00:00,66.2,65.0,29.87,WSW,256,0.0,2.0,95,0.00,,,0.34,0,weatherlink.com 1.10,2013-02-14 00:00:00,
2013-02-13 19:16:00,66.2,64.0,29.88,West,271,2.0,6.0,93,0.00,,,0.34,0,weatherlink.com 1.10,2013-02-14 00:16:00,
2013-02-13 19:30:00,67.1,63.0,29.87,West,262,1.0,5.0,86,0.00,,,0.34,0,weatherlink.com 1.10,2013-02-14 00:30:00,
2013-02-13 19:45:00,67.4,63.0,29.89,West,273,2.0,6.0,85,0.00,,,0.34,0,weatherlink.com 1.10,2013-02-14 00:45:00,
2013-02-13 20:00:00,67.2,63.0,29.88,WSW,257,1.0,4.0,85,0.00,,,0.34,0,weatherlink.com 1.10,2013-02-14 01:00:00,
2013-02-13 20:15:00,66.9,63.0,29.89,WNW,286,1.0,5.0,86,0.00,,,0.34,0,weatherlink.com 1.10,2013-02-14 01:15:00,
2013-02-13 20:30:00,67.1,63.0,29.91,West,271,4.0,9.0,85,0.00,,,0.34,0,weatherlink.com 1.10,2013-02-14 01:30:00,
2013-02-13 20:46:00,67.2,62.0,29.91,West,278,2.0,7.0,84,0.00,,,0.34,0,weatherlink.com 1.10,2013-02-14 01:46:00,
2013-02-13 21:01:00,66.7,62.0,29.92,West,270,2.0,5.0,85,0.00,,,0.34,0,weatherlink.com 1.10,2013-02-14 02:01:00,
2013-02-13 21:15:00,66.1,63.0,29.93,WNW,294,0.0,2.0,88,0.00,,,0.34,0,weatherlink.com 1.10,2013-02-14 02:15:00,
2013-02-13 21:30:00,65.8,62.0,29.94,WSW,250,0.0,2.0,87,0.00,,,0.34,0,weatherlink.com 1.10,2013-02-14 02:30:00,
2013-02-13 21:45:00,65.7,61.0,29.93,WSW,253,1.0,2.0,84,0.00,,,0.34,0,weatherlink.com 1.10,2013-02-14 02:45:00,
2013-02-13 22:01:00,65.6,60.0,29.94,WSW,242,3.0,4.0,82,0.00,,,0.34,0,weatherlink.com 1.10,2013-02-14 03:01:00,
2013-02-13 22:16:00,65.6,58.0,29.93,West,275,1.0,4.0,76,0.00,,,0.34,0,weatherlink.com 1.10,2013-02-14 03:16:00,